Weather History for KI16 - March, 2012

Change the Weather History Date:

Thursday, March 1, 2012

  Actual Average (KBKW) Record (KBKW)
Temperature  
Mean Temperature 50 °F 38 °F  
Max Temperature 64 °F 47 °F 70 °F (1972)
Min Temperature 37 °F 28 °F 4 °F (1960)
Degree Days  
Heating Degree Days 14 27  
Month to date heating degree days 27  
Since 1 July heating degree days 4028  
Cooling Degree Days 0 0  
Month to date cooling degree days 0  
Year to date cooling degree days 0  
Moisture  
Dew Point 38 °F    
Average Humidity 73    
Maximum Humidity 100    
Minimum Humidity 30    
Precipitation  
Precipitation 0.00 in 0.11 in 1.15 in (1954)
Month to date precipitation 0.11  
Year to date precipitation 5.68  
Snow  
Snow 0.00 in - - ()
Month to date snowfall  
Since 1 September snowfall  
Snow Depth -    
Sea Level Pressure  
Sea Level Pressure 29.89 in    
Wind  
Wind Speed 1 mph (NW)    
Max Wind Speed 10 mph    
Max Gust Speed 21 mph    
Visibility 9 miles    
Events      
T = Trace of Precipitation, MM = Missing Value Source: NWS Daily Summary

Daily Weather History Graph

Daily Weather History Graph

Search for Another Location

Airport or City:

Trip Planner

Search our weather history database for the weather conditions in past years. The results will help you decide how hot, cold, wet, or windy it might be!

Date:

Astronomy

Mar. 01, 2012 Rise Set
Actual Time 6:56 AM EST 6:20 PM EST
Civil Twilight 6:30 AM EST 6:46 PM EST
Nautical Twilight 6:00 AM EST 7:17 PM EST
Astronomical Twilight 5:30 AM EST 7:47 PM EST
Moon 11:44 AM EST (3/1) 1:49 AM EST (3/1)
Length of Visible Light 12h 16m
Length of Day
11h 23m
First Quarter, 56% of the Moon is Illuminated
Mar 1
First Quarter
Mar 8
Full
Mar 14
Last Quarter
Mar 22
New
Mar 30
First Quarter

Hourly Weather History & Observations

Time (EST) Temp. Dew Point Humidity Pressure Visibility Wind Dir Wind Speed Gust Speed Precip Events Conditions
12:15 AM 50.0 °F 50.0 °F 100% 29.82 in 4.0 mi Calm Calm - N/A   Clear
12:35 AM 50.0 °F 50.0 °F 100% 29.82 in 3.0 mi Calm Calm - N/A   Clear
1:35 AM 46.4 °F 46.4 °F 100% 29.82 in 4.0 mi Calm Calm - N/A   Clear
1:55 AM 46.4 °F 46.4 °F 100% 29.82 in 4.0 mi Calm Calm - N/A   Clear
2:15 AM 46.4 °F 46.4 °F 100% 29.82 in 4.0 mi Calm Calm - N/A   Clear
2:35 AM 46.4 °F 46.4 °F 100% 29.82 in 4.0 mi Calm Calm - N/A   Clear
3:15 AM 46.4 °F 46.4 °F 100% 29.82 in 7.0 mi Calm Calm - N/A   Clear
3:35 AM 46.4 °F 46.4 °F 100% 29.83 in 7.0 mi Calm Calm - N/A   Clear
3:55 AM 44.6 °F 44.6 °F 100% 29.83 in 7.0 mi Calm Calm - N/A   Clear
4:15 AM 44.6 °F 44.6 °F 100% 29.84 in 7.0 mi Calm Calm - N/A   Clear
4:35 AM 42.8 °F 42.8 °F 100% 29.84 in 5.0 mi Calm Calm - N/A   Clear
5:15 AM 42.8 °F 42.8 °F 100% 29.86 in 7.0 mi Calm Calm - N/A   Clear
5:35 AM 42.8 °F 42.8 °F 100% 29.87 in 7.0 mi Calm Calm - N/A   Clear
5:55 AM 41.0 °F 41.0 °F 100% 29.87 in 5.0 mi Calm Calm - N/A   Clear
6:15 AM 41.0 °F 41.0 °F 100% 29.87 in 7.0 mi Calm Calm - N/A   Clear
6:35 AM 42.8 °F 42.8 °F 100% 29.87 in 10.0 mi Calm Calm - N/A   Clear
6:55 AM 41.0 °F 41.0 °F 100% 29.88 in 10.0 mi Calm Calm - N/A   Clear
7:15 AM 41.0 °F 41.0 °F 100% 29.89 in 10.0 mi Calm Calm - N/A   Clear
7:35 AM 41.0 °F 41.0 °F 100% 29.89 in 10.0 mi Calm Calm - N/A   Clear
7:55 AM 41.0 °F 41.0 °F 100% 29.90 in 10.0 mi Calm Calm - N/A   Clear
8:15 AM 42.8 °F 42.8 °F 100% 29.90 in 10.0 mi Calm Calm - N/A   Clear
8:35 AM 44.6 °F 44.6 °F 100% 29.91 in 10.0 mi Calm Calm - N/A   Clear
8:55 AM 50.0 °F 44.6 °F 82% 29.91 in 10.0 mi Calm Calm - N/A   Clear
9:15 AM 53.6 °F 41.0 °F 62% 29.91 in 10.0 mi Calm Calm - N/A   Clear
9:35 AM 53.6 °F 37.4 °F 54% 29.92 in 10.0 mi Calm Calm - N/A   Clear
10:35 AM 57.2 °F 35.6 °F 44% 29.92 in 10.0 mi NW 4.6 mph - N/A   Clear
10:55 AM 57.2 °F 33.8 °F 41% 29.92 in 10.0 mi NW 3.5 mph - N/A   Clear
11:15 AM 59.0 °F 35.6 °F 42% 29.92 in 10.0 mi WNW 6.9 mph - N/A   Clear
11:35 AM 59.0 °F 33.8 °F 39% 29.92 in 10.0 mi NW 5.8 mph - N/A   Clear
11:55 AM 59.0 °F 33.8 °F 39% 29.91 in 10.0 mi NW 5.8 mph 17.3 mph N/A   Clear
12:15 PM 60.8 °F 33.8 °F 36% 29.91 in 10.0 mi NW 6.9 mph - N/A   Clear
12:35 PM 60.8 °F 33.8 °F 36% 29.91 in 10.0 mi NW 9.2 mph - N/A   Clear
12:55 PM 60.8 °F 33.8 °F 36% 29.90 in 10.0 mi NW 10.4 mph 19.6 mph N/A   Clear
1:15 PM 60.8 °F 33.8 °F 36% 29.90 in 10.0 mi NW 6.9 mph - N/A   Clear
1:35 PM 62.6 °F 32.0 °F 32% 29.89 in 10.0 mi NW 8.1 mph 20.7 mph N/A   Clear
2:15 PM 62.6 °F 32.0 °F 32% 29.89 in 10.0 mi NW 8.1 mph - N/A   Clear
2:35 PM 62.6 °F 32.0 °F 32% 29.89 in 10.0 mi WNW 8.1 mph - N/A   Clear
2:55 PM 64.4 °F 32.0 °F 30% 29.87 in 10.0 mi WNW 3.5 mph - N/A   Clear
3:35 PM 64.4 °F 32.0 °F 30% 29.87 in 10.0 mi WNW 6.9 mph - N/A   Clear
3:55 PM 64.4 °F 32.0 °F 30% 29.87 in 10.0 mi West 4.6 mph - N/A   Clear
4:35 PM 62.6 °F 32.0 °F 32% 29.87 in 10.0 mi NW 6.9 mph - N/A   Clear
5:15 PM 60.8 °F 32.0 °F 34% 29.89 in 10.0 mi NNW 3.5 mph - N/A   Clear
5:35 PM 60.8 °F 32.0 °F 34% 29.89 in 10.0 mi Calm Calm - N/A   Clear
5:55 PM 59.0 °F 33.8 °F 39% 29.90 in 10.0 mi Calm Calm - N/A   Clear
6:15 PM 53.6 °F 37.4 °F 54% 29.91 in 10.0 mi Calm Calm - N/A   Clear
6:35 PM 51.8 °F 37.4 °F 58% 29.91 in 10.0 mi Calm Calm - N/A   Clear
6:55 PM 50.0 °F 37.4 °F 62% 29.92 in 10.0 mi Calm Calm - N/A   Clear
7:15 PM 46.4 °F 39.2 °F 76% 29.92 in 10.0 mi Calm Calm - N/A   Clear
7:35 PM 44.6 °F 37.4 °F 76% 29.93 in 10.0 mi Calm Calm - N/A   Clear
7:55 PM 44.6 °F 37.4 °F 76% 29.93 in 10.0 mi Calm Calm - N/A   Clear
8:15 PM 42.8 °F 37.4 °F 81% 29.93 in 10.0 mi Calm Calm - N/A   Clear
8:35 PM 42.8 °F 37.4 °F 81% 29.93 in 10.0 mi Calm Calm - N/A   Clear
8:55 PM 41.0 °F 37.4 °F 87% 29.94 in 10.0 mi Calm Calm - N/A   Clear
9:15 PM 41.0 °F 37.4 °F 87% 29.94 in 10.0 mi Calm Calm - N/A   Clear
9:35 PM 41.0 °F 35.6 °F 81% 29.94 in 10.0 mi Calm Calm - N/A   Clear
9:55 PM 39.2 °F 35.6 °F 87% 29.95 in 10.0 mi Calm Calm - N/A   Clear
10:15 PM 39.2 °F 35.6 °F 87% 29.95 in 10.0 mi Calm Calm - N/A   Clear
10:35 PM 37.4 °F 35.6 °F 93% 29.95 in 10.0 mi Calm Calm - N/A   Clear
10:55 PM 37.4 °F 35.6 °F 93% 29.95 in 10.0 mi Calm Calm - N/A   Clear
11:15 PM 37.4 °F 35.6 °F 93% 29.94 in 10.0 mi Calm Calm - N/A   Clear
11:35 PM 37.4 °F 35.6 °F 93% 29.94 in 10.0 mi Calm Calm - N/A   Clear
11:55 PM 37.4 °F 35.6 °F 93% 29.95 in 10.0 mi Calm Calm - N/A   Clear